Overview Statistics Trail Chart Weather Telemetry Raw packets
 

This is the latest recevied weather packets stored in our database for station/object KD4EED. If no packets are shown the sender has not sent any weather packets the latest 10 day(s).

<< 28 29 30 31 32 33 34 >>
Time Temp. Humidity Pressure Rain* Wind** Luminosity Snow
1788490597 21.11° C 74% 1009.3 hPa - - 0 W/m² -
1788490297 21.11° C 74% 1009 hPa - - 0 W/m² -
1788489993 21.11° C 74% 1009.1 hPa - - 0 W/m² -
1788489688 21.11° C 74% 1009.1 hPa - - 0 W/m² -
1788489384 21.11° C 73% 1008.9 hPa - - 0 W/m² -
1788489080 21.67° C 74% 1009.1 hPa - - 0 W/m² -
1788488779 21.67° C 73% 1009.1 hPa - - 0 W/m² -
1788488476 21.67° C 72% 1009.2 hPa - - 1 W/m² -
1788488172 22.22° C 72% 1009.2 hPa - - 2 W/m² -
1788487867 22.22° C 71% 1009 hPa - - 3 W/m² -
1788487563 22.78° C 71% 1009 hPa - - 5 W/m² -
1788487257 22.78° C 69% 1009.1 hPa - - 7 W/m² -
1788486951 23.33° C 68% 1009 hPa - - 9 W/m² -
1788486650 23.33° C 68% 1009.1 hPa - - 13 W/m² -
1788486350 23.89° C 67% 1009.3 hPa - - 17 W/m² -
1788486046 24.44° C 65% 1009.1 hPa - - 28 W/m² -
1788485742 24.44° C 65% 1009 hPa - - 28 W/m² -
1788485439 25° C 64% 1009 hPa - - 38 W/m² -
1788485138 25° C 62% 1008.9 hPa - - 43 W/m² -
1788484832 25.56° C 59% 1009 hPa - - 47 W/m² -
1788484532 25.56° C 59% 1009 hPa - - 53 W/m² -
1788484258 26.11° C 58% 1009 hPa - - 58 W/m² -
1788483923 26.67° C 58% 1009.1 hPa - - 65 W/m² -
1788483620 27.22° C 56% 1009 hPa - - 72 W/m² -
1788483314 27.78° C 54% 1009.1 hPa - - 79 W/m² -

* Rain since midnight (hover to see other rain measurements)
** Current wind speed in m/s (hover to see current wind gust speed)